This demonstration page uses our WeatherBlox Daily Observations layout. Learn more.

Left ArrowRight Arrow

34.02893, -84.19858

Hourly Observations for March 21, 2016

Temp ( °F °C ) Dew Point ( °F °C ) Humidity (%) Winds ( mph kmh ) Pressure ( in mb ) Visibility ( mi km ) Precip ( " mm )
12:53 am 00:53 Partly Cloudy 40 4.4 23 -5 51 51 WNW 14 22 30.12 1020 10 16 0.00 0.00
1:53 am 01:53 Mostly Cloudy 39 3.9 27 -2.8 62 62 NNW 15 24 30.13 1020 10 16 0.00 0.00
2:53 am 02:53 Partly Cloudy 39 3.9 29 -1.7 67 67 NW 13 20 30.14 1021 10 16 0.00 0.00
3:53 am 03:53 Clear 38 3.3 29 -1.7 70 70 NW 7 11 30.14 1021 10 16 0.00 0.00
4:53 am 04:53 Clear 38 3.3 29 -1.7 70 70 NW 10 17 30.15 1021 10 16 0.00 0.00
5:53 am 05:53 Clear 38 3.3 29 -1.7 70 70 NW 12 19 30.17 1022 10 16 0.00 0.00
6:53 am 06:53 Clear 36 2.2 30 -1.1 79 79 NW 9 15 30.19 1022 10 16 0.00 0.00
7:53 am 07:53 Sunny 36 2.2 30 -1.1 79 79 NW 7 11 30.22 1023 10 16 0.00 0.00
8:53 am 08:53 Sunny 39 3.9 30 -1.1 70 70 WNW 10 17 30.25 1025 10 16 0.00 0.00
9:53 am 09:53 Sunny 42 5.6 29 -1.7 60 60 NNW 13 20 30.28 1025 10 16 0.00 0.00
10:53 am 10:53 Mostly Sunny 45 7.2 28 -2.2 52 52 NNW 14 22 30.29 1026 10 16 0.00 0.00
11:53 am 11:53 Mostly Sunny 48 8.9 28 -2.2 46 46 NNW 14 22 30.30 1026 10 16 0.00 0.00
12:53 pm 12:53 Sunny 50 10 27 -2.8 41 41 NW 15 24 30.29 1026 10 16 0.00 0.00
1:53 pm 13:53 Sunny 52 11.1 26 -3.3 37 37 WNW 9 15 30.27 1025 10 16 0.00 0.00
2:53 pm 14:53 Sunny 53 11.7 26 -3.3 35 35 WNW 16 26 30.24 1024 10 16 0.00 0.00
3:53 pm 15:53 Sunny 55 12.8 25 -3.9 31 31 NW 15 24 30.24 1024 10 16 0.00 0.00
4:53 pm 16:53 Sunny 56 13.3 26 -3.3 32 32 WNW 14 22 30.23 1024 10 16 0.00 0.00
5:53 pm 17:53 Sunny 55 12.8 25 -3.9 31 31 NW 13 20 30.22 1023 10 16 0.00 0.00
6:53 pm 18:53 Sunny 55 12.8 26 -3.3 33 33 NW 10 17 30.23 1024 10 16 0.00 0.00
7:53 pm 19:53 Clear 52 11.1 27 -2.8 38 38 WNW 9 15 30.24 1024 10 16 0.00 0.00
8:53 pm 20:53 Clear 49 9.4 28 -2.2 44 44 W 6 9 30.26 1025 10 16 0.00 0.00
9:53 pm 21:53 Clear 48 8.9 29 -1.7 48 48 W 7 11 30.28 1025 10 16 0.00 0.00
10:53 pm 22:53 Clear 46 7.8 29 -1.7 51 51 W 5 7 30.28 1025 10 16 0.00 0.00
11:53 pm 23:53 Clear 45 7.2 29 -1.7 54 54 WNW 3 6 30.28 1026 10 16 0.00 0.00

Powered by AerisWeather